Regional Weather Roundup
Issued by NWS

Home | Current Version | Previous Version | Graphics & Text | Print | Product List | Glossary On
Versions: 1 2 3 4 5 6 7 8 9 10 11 12 13 14 15 16 17 18 19 20 21 22 23 24 25 26 27 28 29 30 31 32 33 34 35 36 37 38 39 40 41 42 43 44 45 46 47 48 49 50
000
ASUS43 KDMX 280407
RWRIA

WEATHER ROUNDUP FOR IOWA
NATIONAL WEATHER SERVICE DES MOINES IA
1000 PM CST FRI FEB 27 2015

NOTE: "FAIR" INDICATES FEW OR NO CLOUDS BELOW 12,000 FEET WITH NO
SIGNIFICANT WEATHER AND/OR OBSTRUCTIONS TO VISIBILITY.

* - THESE STATIONS ARE NOT NWS STATIONS...THUS NOT UNDER NWS
QUALITY CONTROL.  THEY ALSO DO NOT REPORT WEATHER SUCH
AS PRECIPITATION OR FOG.

IAZ001>003-012>014-020>022-031>034-043>046-280500-
   NORTHWEST IOWA

CITY           SKY/WX    TMP DP  RH WIND       PRES   REMARKS
CARROLL *      PTCLDY     0  -6  78 CALM      30.55R
CHEROKEE *     CLEAR      0  -6  78 S5        30.52S WCI -10
DENISON *      PTCLDY     1  -4  78 E3        30.51S
LE MARS *      CLEAR      3  -2  78 S3        30.51S
ORANGE CITY *  CLEAR      3  -4  72 CALM      30.48S
SHELDON *      CLEAR      1  -6  71 S9        30.48R WCI -14
SIOUX CITY     CLEAR      3  -2  79 E7        30.51S WCI  -9
SPENCER        CLEAR     -4 -11  72 S10       30.51R WCI -21
STORM LAKE *   CLEAR      0  -6  78 S9        30.50F WCI -16
$$

IAZ055>058-069>071-079>083-090>094-280500-
   SOUTHWEST IOWA

CITY           SKY/WX    TMP DP  RH WIND       PRES   REMARKS
ATLANTIC *     CLEAR      5  -2  72 NE3       30.55R
AUDUBON *      CLEAR     -4  -9  77 CALM      30.54S
CLARINDA *     CLEAR     10   1  67 CALM      30.58S
COUNCIL BLFS * CLEAR     10   3  72 SE5       30.51S WCI   2
CRESTON *      CLEAR      5  -2  72 SE6       30.55S WCI  -6
HARLAN  *      CLEAR      7   1  78 SE7       30.57S WCI  -5
LAMONI         PTCLDY     7  -2  66 SE5       30.56S WCI  -2
RED OAK *      CLEAR      9   1  72 S3        30.56R
SHENANDOAH *   PTCLDY     7   0  72 CALM      30.56S
$$

IAZ047>049-059>061-072>074-084-280500-
   CENTRAL IOWA

CITY           SKY/WX    TMP DP  RH WIND       PRES   REMARKS
AMES           CLEAR     -2  -7  79 SE3       30.60R
ANKENY *       CLEAR      1  -4  78 CALM      30.61S
CHARITON *     CLEAR      5  -4  66 SE5       30.59S WCI  -4
DES MOINES     CLEAR      8  -2  63 SE8       30.60R WCI  -4
GRINNELL*      MOCLDY     0  -6  78 SE6       30.61R WCI -12
KNOXVILLE *    CLEAR      3  -6  66 E5        30.60S WCI  -6
MARSHALLTOWN   MOCLDY    -6  -9  86 SE6       30.59S WCI -19
PELLA *        PTCLDY     1  -2  85 SE6       30.63S WCI -10
PERRY *          N/A      3   0  85 SE7       30.57S WCI  -9
$$

IAZ004>006-015-016-023>025-035-036-280500-
   NORTH CENTRAL IOWA

CITY           SKY/WX    TMP DP  RH WIND       PRES   REMARKS
ALGONA *       CLEAR     -2  -6  84 S7        30.55R WCI -16
CLARION *      CLEAR     -8 -13  77 SE9       30.57R WCI -25
ESTHERVILLE    CLEAR     -7 -11  83 S9        30.51R WCI -24
FORT DODGE *   PTCLDY     1  -8  66 CALM      30.56S
MASON CITY     MOCLDY    -7 -12  79 S5        30.57R WCI -18
FOREST CITY *  CLEAR     -8 -15  71 CALM      30.55R
IOWA FALLS *     N/A     -6 -11  77 SE8       30.58S WCI -21
$$

IAZ007>011-017>019-026>030-037>042-050>054-066-280500-
   NORTHEAST IOWA

CITY           SKY/WX    TMP DP  RH WIND       PRES   REMARKS
CEDAR RAPIDS   MOCLDY    -5 -10  79 CALM      30.62S
CHARLES CITY * CLEAR     -4  -8  84 S6        30.58S WCI -16
CLINTON *      MOCLDY    -2  -8  78 CALM      30.68S
DECORAH *      CLEAR     -4  -9  77 SW5       30.57R WCI -15
DUBUQUE        MOCLDY   -10 -16  74 SW3       30.61R
MONTICELLO *   CLEAR    -18 -26  69 CALM      30.64S
OELWEIN *      CLEAR     -8 -13  77 S5        30.61R WCI -19
WATERLOO       CLOUDY   -14 -18  82 S3        30.61R
$$

IAZ064-065-067-068-078-280500-
   EAST CENTRAL IOWA

CITY           SKY/WX    TMP DP  RH WIND       PRES   REMARKS
DAVENPORT      MOCLDY    -3 -10  72 CALM      30.66S
IOWA CITY      MOCLDY    -5  -9  83 CALM      30.68R
MT. PLEASANT * CLOUDY    -2  -8  78 E3        30.66R
MUSCATINE *    CLEAR     -8 -11  84 CALM      30.70R
QUAD CITIES    MOCLDY   -10 -16  74 CALM      30.68R
$$

IAZ062-063-075>077-085>089-095>099-280500-
   SOUTHEAST IOWA

CITY           SKY/WX    TMP DP  RH WIND       PRES   REMARKS
BURLINGTON     MOCLDY     1  -6  72 CALM      30.66R
FAIRFIELD *    PTCLDY    -2 -11  65 E5        30.65R WCI -12
FORT MADISON * CLEAR      3  -4  72 SE3       30.66S
KEOKUK *       MOCLDY     5  -2  72 NE3       30.66R
OSKALOOSA *      N/A     -2  -8  78 E6        30.63S WCI -14
CENTERVILLE *  CLEAR      5   0  78 E5        30.61S WCI  -4
OTTUMWA        PTCLDY     3  -5  69 E6        30.63R WCI  -8
WASHINGTON *   CLEAR     -2  -2 100 SE3       30.66R
$$

ABBREVIATIONS USED IN REMARKS
   TC - TEMPERATURES IN CELSIUS
  WCI - WIND CHILL INDEX
   HX - HEAT INDEX
  VSB - VISIBILITY
$$



USA.gov is the U.S. government's official web portal to all federal, state and local government web resources and services.